Barcelona, Spain

4:37 AM CET en Noviembre 21, 2018 (GMT +0100)
El Prat

Tiempo Historia de LEBL - Noviembre, 2018

Change the Weather History Date:

Viernes, Noviembre 9, 2018

  Actual Average Record
Temperature  
Temperatura media 58 ° F -  
Temperatura máxima 62 ° F 58 ° F 71 ° F (2002)
Temperatura mínima 53 ° F 46 ° F 41 ° F (2000)
Degree Days  
Grados día de calefacción 8    
Growing Degree Days 8 (Base 50)    
Moisture  
Punto de rocío 52 ° F    
Average Humidity 81    
Maximum Humidity 100    
Minimum Humidity 62    
Precipitación  
Precipitación 0.67 pul 0.09 pul - ()
Presión al nivel del mar  
Presión al nivel del mar 29.90 pul    
Viento  
Velocidad del viento 7 mph ()    
Velocidad máxima del viento 15 mph    
Max Gust Speed -    
Visibilidad 8.1 Millas    
Eventos Lluvia , Tormenta    
Averages and records for this station are not official NWS values.
T = Trace of Precipitation, MM = Missing Value Source: Averaged Metar Reports

Daily Weather History Graph

Daily Weather History Graph

Search for Another Location

Airport or City:

Astronomía

Nov. 09, 2018 Salida Puesta
Hora real 7:32 AM CET 5:38 PM CET
Crepúsculo civil 7:03 AM CET 6:07 PM CET
Crepúsculo náutico 6:30 AM CET 6:40 PM CET
Crepúsculo astronómico 5:57 AM CET 7:12 PM CET
Luna 9:07 AM CET (11/9) 7:12 PM CET (11/9)
Horas de luz 11h 04m
Horas de luz
10h 05m
Creciente, 4% of the Moon is Illuminated
Nov 9
Creciente
Nov 15
Cuarto creciente
Nov 23
Luna llena
Nov 30
Cuarto menguante
Dic 7
Nueva

Hourly Weather History & Observations

Hora (CET) Temp. Punto de rocío Humedad Presión Visibilidad Wind Dir Velocidad del viento Velocidad de ráfagas Precip Eventos Condiciones
12:00 AM 57.2 ° F 53.6 ° F 88% 29.95 pul 6.2 mi Sin viento Sin viento - N/A   Muy nublado
12:30 AM 57.2 ° F 53.6 ° F 88% 29.95 pul 6.2 mi NNO 1.2 mph - N/A   Muy nublado
1:00 AM 58 ° F 56 ° F 89% 29.95 pul 9 mi NNE 4.6 mph - -   Muy nublado
1:00 AM 57.2 ° F 53.6 ° F 88% 29.95 pul 6.2 mi Norte 3.5 mph - N/A   Muy nublado
1:30 AM 57.2 ° F 53.6 ° F 88% 29.92 pul 6.2 mi Variable 2.3 mph - N/A   Muy nublado
2:00 AM 58 ° F 56 ° F 90% 29.92 pul 8 mi Norte 3.5 mph - -   Despejado
2:00 AM 57.2 ° F 55.4 ° F 94% 29.92 pul 6.2 mi Variable 2.3 mph - N/A   Muy nublado
2:30 AM 57.2 ° F 55.4 ° F 94% 29.89 pul 6.2 mi Sin viento Sin viento - N/A Tormenta Muy nublado
3:00 AM 60 ° F 58 ° F 90% 29.90 pul 7 mi Oeste 5.8 mph - - Lluvia Lluvia débil
3:00 AM 59.0 ° F 57.2 ° F 94% 29.89 pul 6.2 mi ONO 4.6 mph - N/A Tormenta Muy nublado
3:30 AM 60.8 ° F 57.2 ° F 88% 29.86 pul 6.2 mi SSO 10.4 mph - N/A Lluvia Lluvia débil
4:00 AM 60.8 ° F 55.4 ° F 82% 29.86 pul 6.2 mi SO 8.1 mph - N/A Lluvia Lluvia débil
4:13 AM 59.0 ° F 55.4 ° F 88% 29.86 pul 2.5 mi Oeste 9.2 mph - N/A Lluvia , Tormenta Tormenta
4:30 AM 57.2 ° F 55.4 ° F 94% 29.86 pul 2.5 mi ONO 9.2 mph - N/A Lluvia , Tormenta Tormenta
4:46 AM 57.2 ° F 55.4 ° F 94% 29.86 pul 1.2 mi Oeste 9.2 mph - N/A Lluvia , Tormenta Tormenta fuerte
5:00 AM 58 ° F 57 ° F 94% 29.88 pul 6 mi ONO 10.4 mph - - Lluvia Lluvias fuertes
5:30 AM 55.4 ° F 55.4 ° F 100% 29.86 pul 3.1 mi NNO 15.0 mph - N/A Lluvia Lluvia
6:00 AM 55 ° F 54 ° F 98% 29.86 pul 7 mi Norte 11.5 mph - - Lluvia Lluvia
6:00 AM 55.4 ° F 53.6 ° F 94% 29.83 pul 4.3 mi NNO 13.8 mph - N/A Lluvia Lluvia
6:30 AM 55.4 ° F 53.6 ° F 94% 29.83 pul 6.2 mi NNO 10.4 mph - N/A   Muy nublado
7:00 AM 56 ° F 54 ° F 90% 29.85 pul 12 mi Norte 13.8 mph - - Lluvia Lluvia débil
7:00 AM 55.4 ° F 53.6 ° F 94% 29.83 pul 6.2 mi NNO 12.7 mph - N/A   Muy nublado
7:30 AM 55.4 ° F 51.8 ° F 88% 29.83 pul 6.2 mi Norte 10.4 mph - N/A Lluvia Lluvia débil
8:00 AM 55.4 ° F 53.6 ° F 94% 29.86 pul 6.2 mi NO 8.1 mph - N/A Lluvia Lluvia débil
8:30 AM 55.4 ° F 53.6 ° F 94% 29.86 pul 6.2 mi NNO 9.2 mph - N/A   Muy nublado
9:00 AM 56 ° F 54 ° F 92% 29.86 pul 19 mi Norte 6.9 mph - -  
9:00 AM 55.4 ° F 53.6 ° F 94% 29.86 pul 6.2 mi NNO 11.5 mph - N/A   Nubes dispersas
9:30 AM 55.4 ° F 53.6 ° F 94% 29.86 pul 6.2 mi NO 11.5 mph - N/A   Parcialmente nublado
10:00 AM 58 ° F 55 ° F 85% 29.86 pul 19 mi Norte 4.6 mph - -   Parcialmente nublado
10:00 AM 57.2 ° F 53.6 ° F 88% 29.86 pul 6.2 mi NNO 10.4 mph - N/A   Parcialmente nublado
10:30 AM 59.0 ° F 51.8 ° F 77% 29.86 pul 6.2 mi NNO 13.8 mph - N/A   Parcialmente nublado
11:00 AM 60 ° F 53 ° F 72% 29.87 pul 19 mi Norte 10.4 mph - -  
11:00 AM 59.0 ° F 51.8 ° F 77% 29.86 pul 6.2 mi NNO 12.7 mph - N/A   Parcialmente nublado
11:30 AM 60.8 ° F 51.8 ° F 72% 29.86 pul 6.2 mi NNO 10.4 mph - N/A   Parcialmente nublado
12:00 PM 62 ° F 53 ° F 65% 29.88 pul 19 mi NNO 10.4 mph - -  
12:00 PM 60.8 ° F 51.8 ° F 72% 29.86 pul 6.2 mi NO 11.5 mph - N/A   Muy nublado
12:30 PM 60.8 ° F 51.8 ° F 72% 29.86 pul 6.2 mi NO 12.7 mph - N/A   Muy nublado
1:00 PM 60 ° F 52 ° F 66% 29.88 pul 19 mi NNO 9.2 mph - -   Parcialmente nublado
1:00 PM 59.0 ° F 50.0 ° F 72% 29.86 pul 6.2 mi NO 9.2 mph - N/A   Muy nublado
1:30 PM 59.0 ° F 50.0 ° F 72% 29.86 pul 6.2 mi NNO 12.7 mph - N/A   Muy nublado
2:00 PM 59.0 ° F 50.0 ° F 72% 29.86 pul 6.2 mi NO 11.5 mph - N/A   Muy nublado
2:30 PM 59.0 ° F 50.0 ° F 72% 29.89 pul 6.2 mi NO 12.7 mph - N/A   Muy nublado
3:00 PM 59 ° F 52 ° F 71% 29.91 pul 10 mi NNO 13.8 mph - - Lluvia Lluvia débil
3:00 PM 59.0 ° F 50.0 ° F 72% 29.89 pul 6.2 mi NO 13.8 mph - N/A Lluvia Lluvia débil
3:30 PM 57.2 ° F 50.0 ° F 77% 29.89 pul 6.2 mi NO 13.8 mph - N/A Lluvia Lluvia débil
4:00 PM 57.2 ° F 50.0 ° F 77% 29.92 pul 6.2 mi NO 12.7 mph - N/A Lluvia Lluvia débil
4:30 PM 57.2 ° F 50.0 ° F 77% 29.92 pul 6.2 mi NO 11.5 mph - N/A Lluvia Lluvia débil
5:00 PM 59.0 ° F 51.8 ° F 77% 29.92 pul 6.2 mi NNO 8.1 mph - N/A   Muy nublado
5:30 PM 57.2 ° F 50.0 ° F 77% 29.92 pul 6.2 mi NNO 11.5 mph - N/A   Nubes dispersas
6:00 PM 59 ° F 52 ° F 72% 29.94 pul 19 mi NNO 6.9 mph - -  
6:00 PM 59.0 ° F 50.0 ° F 72% 29.92 pul 6.2 mi NNO 8.1 mph - N/A   Nubes dispersas
6:30 PM 57.2 ° F 50.0 ° F 77% 29.95 pul 6.2 mi NO 8.1 mph - N/A   Parcialmente nublado
7:00 PM 59.0 ° F 50.0 ° F 72% 29.95 pul 6.2 mi NO 10.4 mph - N/A   Parcialmente nublado
7:30 PM 59.0 ° F 50.0 ° F 72% 29.95 pul 6.2 mi Oeste 4.6 mph - N/A   Parcialmente nublado
8:00 PM 58 ° F 52 ° F 73% 29.97 pul 19 mi Norte 2.3 mph - -  
8:00 PM 57.2 ° F 50.0 ° F 77% 29.95 pul 6.2 mi NO 5.8 mph - N/A   Parcialmente nublado
8:30 PM 57.2 ° F 48.2 ° F 72% 29.95 pul 6.2 mi NO 8.1 mph - N/A   Parcialmente nublado
9:00 PM 58 ° F 48 ° F 62% 29.98 pul 19 mi Norte 4.6 mph - -  
9:00 PM 57.2 ° F 48.2 ° F 72% 29.98 pul 6.2 mi NO 8.1 mph - N/A   Parcialmente nublado
9:30 PM 57.2 ° F 44.6 ° F 63% 29.98 pul 6.2 mi NO 8.1 mph - N/A   Nubes dispersas
10:00 PM 57 ° F 48 ° F 64% 29.98 pul 19 mi Sin viento Sin viento - -   Nubes dispersas
10:00 PM 57.2 ° F 46.4 ° F 67% 29.98 pul 6.2 mi NO 8.1 mph - N/A   Parcialmente nublado
10:30 PM 55.4 ° F 46.4 ° F 72% 29.98 pul 6.2 mi NNO 6.9 mph - N/A   Parcialmente nublado
11:00 PM 55 ° F 47 ° F 66% 29.98 pul 19 mi NNE 1.2 mph - -  
11:00 PM 53.6 ° F 44.6 ° F 72% 29.98 pul 6.2 mi NO 4.6 mph - N/A   Parcialmente nublado
11:30 PM 53.6 ° F 44.6 ° F 72% 29.98 pul 6.2 mi NO 9.2 mph - N/A   Parcialmente nublado